www.pogodaiklimat.ru

Погода и климат >> Архив погоды >> Аргентина >> Вилла де Мария дель Рио Секо


ПОГОДА в Вилла де Мария дель Рио Секо

  • Прогноз погоды в Вилла де Мария дель Рио Секо
  • Монитор погоды в Вилла де Мария дель Рио Секо

АРХИВ ПОГОДЫ в Вилла де Мария дель Рио Секо

Время (UTC), дата Ветер
(напр.,м/с)
 
Видим.   Явления Облачность Т
(С)
Тd
(С)
f
(%)
Тe
(С)
Тes
(С)
Комфортность P
(гПа)
Po
(гПа)
Тmin
(С)
Tmax
(С)
R
(мм)
R24
(мм)
S
(см)
15 20.05 штиль 0 10 км дымка 10/10 750 м
[St]
+15.0 +12.0 82 +15 +15 1015.2 974.9
18 20.05 ЮВ 1 15 км {дождь} 10/10 750 м
[St]
+17.4 +13.6 78 +18 +18 1012.1 972.2 0.0
21 20.05 В 3 15 км в посл. час морось {дождь} 9/8 750 м
[St Ac cuf]
+16.0 +14.1 88 +16 +16 1012.7 972.8
00 21.05 штиль 0 15 км {морось} 10/10 750 м
[St]
+14.8 +13.6 93 +14 +14 1015.3 975.2 +13.2 +18.0 0.0
03 21.05 Ю 7 4000 м слаб. морось 10/10 600 м
[St]
+13.4 +13.0 97 +11 +11 1017.7 977.6
06 21.05 Ю 7 15 км {морось} 9/9 600 м
[St]
+10.5 +9.9 96 +7 +7 1018.6 978.4 0.0
09 21.05 Ю 4 17 км 10/10 750 м
[St]
+8.6 +7.6 93 +5 +5 1020.2 979.8
12 21.05 Ю 4 17 км 9/9 750 м
[St]
+9.2 +6.7 84 +6 +6 1021.8 981.0 +8.1 +14.8 0.0
15 21.05 Ю 4 17 км 10/10 750 м
[Sc]
+11.2 +7.2 76 +9 +9 1023.1 982.4
18 21.05 Ю 4 17 км 10/10 750 м
[St]
+12.2 +7.9 75 +10 +10 1021.8 981.0
21 21.05 Ю 4 15 км 10/10 660 м
[St]
+11.7 +8.4 80 +10 +10 1022.0 981.0
00 22.05 Ю 4 17 км 9/9 750 м
[St]
+10.1 +8.7 91 +7 +7 1023.7 982.6 +9.2 +12.5
03 22.05 Ю 3 17 км 10/10 660 м
[St]
+10.0 +8.4 90 +8 +8 1025.0 984.0
06 22.05 Ю 1 2000 м слаб. морось 10/10 900 м
[St]
+9.2 +8.8 97 +8 +8 1024.7 983.7 2
09 22.05 Ю 3 2000 м слаб. морось 10/10 900 м
[St]
+9.8 +7.8 87 +8 +8 1023.9 983.0
12 22.05 ЮВ 1 1500 м морось 10/10 600 м
[St]
+8.5 +8.1 97 +8 +8 1025.6 984.4 +8.5 +10.1 1
15 22.05 ЮВ 3 2000 м слаб. морось 10/10 600 м
[St]
+8.8 +8.0 95 +6 +6 1025.7 984.5
18 22.05 Ю 3 15 км {морось} 10/10 570 м
[Sc]
+11.5 +8.6 82 +10 +10 1023.5 982.5 0.7
21 22.05 Ю 1 15 км 9/8 570 м
[Sc Ac As]
+11.5 +8.2 80 +11 +11 1023.2 982.2
00 23.05 штиль 0 15 км 10/10 570 м
[St]
+10.5 +8.5 87 +10 +10 1025.1 984.0 +8.5 +11.5
03 23.05 штиль 0 15 км 10/10 570 м
[Sc]
+10.2 +8.6 90 +9 +9 1026.0 984.8
06 23.05 штиль 0 10 км дымка 10/10 540 м
[Sc]
+8.0 +7.6 97 +7 +7 1025.5 984.4
09 23.05 штиль 0 15 км 10/10 540 м
[St]
+7.0 +6.6 97 +6 +6 1024.7 983.4
12 23.05 штиль 0 15 км дымка 9/9 600 м
[St]
+7.8 +7.0 95 +7 +7 1024.9 983.7 +6.8 +10.5 0.7
15 23.05 штиль 0 17 км 6/3 900 м
[Sc Ac trans Cs]
+14.5 +8.6 68 +14 +20 1024.0 983.3
18 23.05 СВ 1 17 км 4/1 750 м
[Sc diur, vesp Ac cuf Cs]
+18.6 +8.5 52 +20 +26 1020.4 980.0
21 23.05 СВ 1 17 км ясно +17.4 +8.8 57 +18 +19 1019.5 978.9
00 24.05 штиль 0 17 км ясно +8.1 +6.9 92 +7 +7 1021.0 979.8 +7.8 +20.2
03 24.05 штиль 0 17 км ясно +4.4 +3.5 94 +3 +3 1021.0 980.0
06 24.05 штиль 0 17 км ясно +4.2 +3.7 97 +3 +3 1019.8 979.2
09 24.05 штиль 0 15 км ясно +4.4 +3.9 97 +3 +3 1019.2 978.5
12 24.05 штиль 0 15 км дымка ясно +4.8 +4.3 97 +4 +5 1020.0 978.5 +2.4 +8.1
15 24.05 В 1 18 км 1/0
[Ci sp]
+20.5 +14.4 68 +24 +33 комфорт 1018.5 978.1
18 24.05 СЗ 3 18 км 5/0
[Ci sp]
+21.0 +3.7 32 +22 +27 комфорт 1016.2 975.8
21 24.05 В 1 18 км 3/0
[Ci sp]
+18.6 +9.0 54 +20 +20 1015.5 975.0
00 25.05 штиль 0 18 км ясно +7.6 +5.9 89 +7 +7 1016.6 975.3 +7.6 +22.3
03 25.05 штиль 0 17 км 1/0
[Ci fib]
+6.8 +6.4 97 +6 +6 1015.6 975.3
06 25.05 штиль 0 5000 м ясно +3.4 +2.9 97 +2 +2 1015.0 974.6
09 25.05 С 1 17 км 8/8 750 м
[Sc]
+11.6 +6.5 71 +12 +12 1012.5 972.6
12 25.05 СЗ 4 15 км 9/9 900 м
[Sc]
+13.4 +7.5 67 +12 +12 1014.8 974.1 +3.3 +13.4
15 25.05 С 4 17 км 9/0
[As op Cs]
+17.6 +7.7 52 +17 +20 1014.4 974.0
18 25.05 С 3 17 км 9/5 900 м
[Sc As op Cs]
+18.8 +7.9 49 +20 +21 1011.8 971.4
21 25.05 В 1 17 км 9/5 900 м
[Sc As op Cs]
+15.8 +9.9 68 +17 +17 1008.8 968.9
00 26.05 штиль 0 17 км 10/0
[Cs]
+10.4 +9.2 92 +10 +10 1012.5 972.2 +10.5 +20.5
03 26.05 СВ 1 5000 м дымка 3/0
[Cs]
+10.4 +10.0 97 +10 +10 1011.4 971.4
06 26.05 С 3 10 км дымка 1/0
[Cs]
+12.8 +9.8 82 +12 +12 1008.8 969.2
09 26.05 С 1 10 км дымка 1/0
[Cs]
+12.2 +9.9 86 +12 +12 1009.8 969.8
12 26.05 СЗ 1 17 км 4/0
[Cs]
+14.8 +11.6 81 +15 +16 1011.3 971.2 +8.5 +14.8
15 26.05 СЗ 3 17 км 5/0
[Cs]
+20.2 +12.3 60 +22 +28 комфорт 1010.8 971.0
18 26.05 ЮВ 1 17 км 5/0
[Cs]
+22.4 +12.1 52 +25 +32 комфорт 1009.2 969.7
21 26.05 ЮВ 1 17 км 5/0
[Cs]
+19.0 +11.6 62 +21 +21 комфорт 1010.7 970.9
00 27.05 В 1 17 км ясно +10.6 +9.0 90 +10 +10 1014.9 974.5 +10.7 +23.0
03 27.05 В 1 17 км ясно +10.2 +9.0 92 +10 +10 1016.8 976.8
06 27.05 штиль 0 17 км ясно +8.4 +7.8 96 +7 +7 1013.2 973.3
09 27.05 штиль 0 17 км 10/10 1200 м
[Sc]
+8.1 +6.9 92 +7 +7 1012.5 972.5
12 27.05 штиль 0 17 км 10/10 900 м
[Sc]
+9.5 +8.5 93 +9 +9 1014.2 973.6 +7.6 +10.6

 

Местоположение метеостанции Вилла де Мария дель Рио Секо (Аргентина): широта -29.90 долгота -63.68 высота над уровнем моря 341 м.

В архиве по умолчанию представлена погода в Вилла де Мария дель Рио Секо за последнюю неделю. Архивные данные за месяц целиком и за предыдущие месяцы, начиная с января 2011 года, Вы можете получить, выбрав интересующий диапазон дат из раскрывающегося списка и нажав кнопку "Ввод!".


*Определитесь, кто Вы:
робот инопланетянин человек

Внимание! Время в таблицах - всемирное. Для получения местного времени необходимо прибавить поправку, которая равна -3 ч.

Смотрите также архив погоды в соседних городах и на ближайших метеорологических станциях:

Погода в Кордове (Аргентина) (165 км)
Погода в Сересе (Аргентина) (167 км)
Погода в Пиларе (Аргентина) (197 км)
Погода в Сантьяго-дель-Эстеро (Аргентина) (246 км)
Погода в Сан-Фернандо-дель-Валье-де-Катамарке (Аргентина) (248 км)
Погода в Чамикале (Аргентина) (255 км)
Погода в Вилла Долорес (Аргентина) (267 км)
Погода в Ла-Риохе (Аргентина) (308 км)
Погода в Санта-Фе (Аргентина) (339 км)
Погода в Маркос Хуарес (Аргентина) (344 км)

Пояснения к столбцам:

Ветер - указаны скорость ветра в м/с - средняя за 10 мин, порывы в срок и между сроками (в фигурных скобках) и направление, откуда дует ветер: С - северный, СВ - северо-восточный, В - восточный, ЮВ - юго-восточный, Ю - южный, ЮЗ - юго-западный, З - западный, СЗ - северо-западный.
Видимость - горизонтальная дальность видимости в метрах или километрах. При видимости от 1 до 10 км при отсутствии осадков обычно наблюдается дымка, при ухудшении видимости до 1 км и менее - туман. В сухую погоду видимость может ухудшаться дымом, пылью или мглою.
Явления - указаны атмосферные явления, наблюдавшиеся в срок или в последний час перед сроком; фигурными скобками обозначены явления, наблюдавшиеся между сроками (за 1-3 часа до срока); квадратными скобками обозначены град или гололедные отложения с указанием их диаметра в мм.
Облачность - указаны через наклонную черту общая и нижняя облачность в баллах и высота нижней границы облаков в метрах; квадратными скобками обозначены формы облаков: Ci - перистые, Cs - перисто-слоистые, Cc - перисто-кучевые, Ac - высококучевые, As - высокослоистые, Sc - слоисто-кучевые, Ns - слоисто-дождевые, Cu - кучевые, Cb - кучево-дождевые. Подробнее классификацию облаков см. в Атласе облаков (PDF).
T - Температура воздуха - температура, измеренная на высоте 2 м над землей.
Td - Температура точки росы - температура, при понижении до которой содержащийся в воздухе водяной пар достигнет насыщения.
f - Относительная влажность воздуха - влажноcть воздуха, измеренная на высоте 2 м над землей.
Te - Эффективная температура - температура, которую ощущает одетый по сезону человек в тени. Характеристика душности погоды. При расчете учитывается влияние влажности воздуха и скорости ветра на теплоощущения человека.
Tes - Эффективная температура на солнце - температура, которую ощущает человек, с поправкой на солнечный нагрев. Характеристика знойности погоды. Зависит от высоты солнца над горизонтом, облачности и скорости ветра. Ночью, в пасмурную погоду, а также при ветре 12 м/с и более поправка равна нулю.
P - Атмосферное давление - приведенное к уровню моря атмосферное давление.
Po - Атмосферное давление - измеренное на уровне метеостанции атмосферное давление.
Tmin - Минимальная температура - минимум температуры воздуха на высоте 2 м над землей.
Tmax - Максимальная температура - максимум температуры воздуха на высоте 2 м над землей.
R - Количество осадков - Количество выпавших осадков за период времени, мм. При наведении курсора мыши на число - период времени, за который выпало указанное количество осадков.
R24 - Количество осадков - Количество выпавших осадков за 24 часа, мм.
S - Снежный покров - Высота снежного покрова, см. При наведении курсора мыши на число - состояние снежного покрова и степень покрытия местности в баллах.